[[{"header":{"parameterUnit":"m.s-1","parameterCategory":1,"la1":30.2991,"la2":30.254,"lo1":-89.0895,"lo2":-89.0444,"dy":0.0017,"dx":0.0017,"nx":28,"ny":28,"refTime":"2024-07-14T03:00:00:Z","depth":0,"parameterNumber":2,"parameterNumberName":"U-component_of_WINDS"},"data":[0,0,0,0,0,0,0,0,0,0,0,0,0,0,0,0,0,0,0,0,0,0,0,0,0,0,0,0,0,0,0,0,0,0,0,0,0,0,0,0,0,0,0,0,0,0,0,0,0,0,0,0,0,0,0,0,0,0,2.0175,2.0176,0,2.0227,2.0228,2.0228,2.0182,2.018,2.0178,2.0176,2.0231,2.0234,2.0238,0,0,0,0,0,0,0,0,0,0,0,0,0,2.0034,2.0037,2.0175,2.0176,2.0176,2.0227,2.0228,2.0229,2.0182,2.018,2.0177,2.0175,2.023,2.0234,2.0238,0,0,0,0,0,0,0,0,0,0,0,0,0,2.0092,2.0038,2.0175,2.0159,2.0158,2.0227,2.0228,2.0229,2.0183,2.018,2.0177,2.0174,2.0229,2.0234,2.0239,2.0326,0,0,2.0253,2.0256,0,0,0,0,0,0,0,0,2.0089,2.0097,2.0161,2.016,2.016,2.0195,2.0198,2.0261,2.0183,2.0173,2.0176,2.0173,2.0222,2.0227,2.0243,2.0328,2.0331,2.0254,2.0257,2.0259,2.026,0,0,0,0,0,0,0,2.0085,2.0095,2.0196,2.0162,2.0161,2.0149,2.0154,2.021,2.0213,2.0174,2.0171,2.0177,2.0221,2.0238,2.0244,2.0332,2.0254,2.0258,2.0261,2.0263,2.0487,2.049,0,0,0,0,0,0,2.0083,2.0092,2.0194,2.0197,2.0116,2.0154,2.016,2.0187,2.0212,2.0213,2.018,2.0175,2.0232,2.0238,2.0246,2.0347,2.0259,2.0263,2.0266,2.0484,2.0488,2.0491,0,0,0,0,0,0,2.008,2.0092,2.0192,2.0144,2.0155,2.016,2.019,2.0189,2.0207,2.0217,2.0217,2.0197,2.023,2.0239,2.0305,2.0348,2.0266,2.027,2.0481,2.0485,2.049,2.0552,0,0,0,0,0,0,2.0076,2.0091,2.0125,2.0145,2.0158,2.0251,2.0193,2.0192,2.0215,2.0209,2.0233,2.0234,2.0228,2.0298,2.031,2.0354,2.0274,2.0477,2.0483,2.0488,2.0546,2.0558,2.0568,0,0,0,0,0,2.0071,2.0142,2.0127,2.014,2.02,2.0254,2.0261,2.0252,2.0219,2.0252,2.0258,2.0234,2.0342,2.0305,2.0318,2.0364,2.0474,2.0481,2.0488,2.0541,2.0556,2.0568,0,0,0,0,0,0,2.0129,2.0144,2.0128,2.0207,2.0229,2.0246,2.0288,2.0268,2.0301,2.0294,2.0282,2.0288,2.0357,2.0367,2.0326,2.0448,2.0402,2.0412,2.0439,2.0453,2.0464,2.0459,2.0278,0,0,0,0,0,2.015,2.0192,2.0204,2.0273,2.0284,2.0284,2.0307,2.0298,2.032,2.033,2.034,2.0363,2.0402,2.0428,2.0465,2.0547,2.0551,2.0585,2.0596,2.0605,2.0613,2.0655,2.0669,2.0514,2.0514,2.0513,0,0,2.0196,2.021,2.0237,2.0284,2.03,2.0343,2.0292,2.0341,2.0372,2.0337,2.0399,2.0408,2.0433,2.0507,2.054,2.0518,2.0657,2.0614,2.0621,2.0624,2.0663,2.0678,2.0691,2.0518,2.0517,2.0517,0,0,2.0301,2.0317,2.0374,2.039,2.0414,2.0413,2.0427,2.0445,2.0449,2.0511,2.0485,2.0522,2.059,2.0607,2.0625,2.0733,2.0711,2.0746,2.0804,2.0844,2.0856,2.0867,2.0903,2.0917,2.0754,2.0754,2.0754,0,2.0355,2.0419,2.0406,2.0455,2.0476,2.0444,2.0501,2.0518,2.0553,2.0567,2.0542,2.0623,2.0638,2.0714,2.074,2.0757,2.0771,2.0743,2.0855,2.0866,2.0876,2.091,2.0924,2.0758,2.0758,2.0757,2.0757,0,2.0482,2.0527,2.057,2.0603,2.0628,2.0681,2.0676,2.0703,2.069,2.0692,2.0754,2.077,2.0807,2.0825,2.0815,2.0899,2.0884,2.0857,2.0811,2.0895,2.0927,2.094,2.0763,2.0762,2.0761,2.076,0,0,2.0627,2.0649,2.0665,2.0678,2.0701,2.0734,2.0785,2.082,2.0843,2.0868,2.0909,2.0965,2.0939,2.096,2.095,2.0986,2.1067,2.0955,2.0955,2.0973,2.1158,2.1177,2.1192,2.1053,2.1055,2.1057,2.1155,0,2.073,2.0818,2.0806,2.089,2.0929,2.0898,2.0941,2.096,2.0962,2.0995,2.0997,2.1036,2.1001,2.1012,2.1046,2.105,2.1104,2.1043,2.109,2.1091,2.1083,2.1209,2.123,2.1322,2.1168,2.117,2.1171,0,2.0864,2.0891,2.0977,2.0991,2.1007,2.1046,2.1076,2.1108,2.1128,2.1126,2.1147,2.1131,2.118,2.1133,2.12,2.1159,2.1177,2.1182,2.1185,2.1188,2.1136,2.1214,2.1351,2.1364,2.1191,2.119,2.1188,0,2.0957,2.1015,2.1074,2.1086,2.1104,2.1132,2.1141,2.1157,2.1178,2.1204,2.1217,2.1249,2.1267,2.1291,2.1283,2.125,2.1351,2.1304,2.135,2.135,2.1373,2.1371,2.1513,2.1387,2.1387,2.1387,2.1386,0,2.1073,2.1127,2.1115,2.1151,2.121,2.1196,2.1254,2.1259,2.1273,2.1308,2.1285,2.1318,2.1306,2.134,2.1334,2.1388,2.1397,2.1397,2.1394,2.1398,2.1398,2.1409,2.1402,2.139,2.1389,2.1389,2.1388,0,2.1188,2.1182,2.1243,2.1254,2.1258,2.13,2.1309,2.1342,2.1341,2.1386,2.1396,2.1395,2.1432,2.1426,2.1469,2.1464,2.1532,2.1523,2.1525,2.1522,2.1568,2.1563,2.1721,2.174,2.1603,2.1604,2.1606,0,2.1262,2.1302,2.1316,2.1337,2.1347,2.1383,2.1403,2.139,2.1412,2.1435,2.1465,2.1499,2.1526,2.1587,2.159,2.1621,2.1611,2.1664,2.1616,2.1617,2.1609,2.1606,2.1609,2.1673,2.1675,2.1676,2.1677,0,2.1393,2.1387,2.1417,2.1445,2.1469,2.1492,2.1511,2.153,2.1519,2.1544,2.1581,2.1602,2.1643,2.1677,2.1706,2.1714,2.1694,2.1692,2.1704,2.1708,2.1707,2.1706,2.1549,2.1689,2.1688,2.1687,2.1686,2.1686,2.1488,2.152,2.1534,2.1567,2.158,2.1598,2.1629,2.163,2.1661,2.1692,2.1683,2.1724,2.1739,2.1775,2.1787,2.1818,2.1799,2.1817,2.1821,2.1825,2.1829,2.1703,2.1824,2.1823,2.1823,2.1823,2.1823,0,2.1615,2.1622,2.1652,2.1679,2.1705,2.1682,2.1701,2.1724,2.176,2.1776,2.1802,2.1843,2.1875,2.1879,2.1909,2.1934,2.1925,2.1942,2.1939,2.1941,2.1846,2.1832,2.1948,2.1948,2.1948,2.1948,2.1948,2.1948,2.1685,2.1738,2.1733,2.1792,2.1798,2.1837,2.185,2.1866,2.1878,2.1924,2.195,2.1952,2.1963,2.1993,2.2021,2.2021,2.2032,2.2053,2.2049,2.1961,2.1948,2.1936,2.1922,2.2056,2.2056,2.2141,2.2142,2.2143]},{"header":{"parameterUnit":"m.s-1","parameterCategory":1,"la1":30.2991,"la2":30.254,"lo1":-89.0895,"lo2":-89.0444,"dy":0.0017,"dx":0.0017,"nx":28,"ny":28,"refTime":"2024-07-14T03:00:00:Z","depth":0,"parameterNumber":3,"parameterNumberName":"V-component_of_WINDS"},"data":[0,0,0,0,0,0,0,0,0,0,0,0,0,0,0,0,0,0,0,0,0,0,0,0,0,0,0,0,0,0,0,0,0,0,0,0,0,0,0,0,0,0,0,0,0,0,0,0,0,0,0,0,0,0,0,0,0,0,5.0618,5.0618,0,5.0646,5.0647,5.0647,5.0571,5.0569,5.0567,5.0564,5.059,5.0593,5.0595,0,0,0,0,0,0,0,0,0,0,0,0,0,5.0492,5.0495,5.0618,5.0618,5.0618,5.0646,5.0647,5.0647,5.0572,5.0569,5.0566,5.0563,5.0589,5.0592,5.0596,0,0,0,0,0,0,0,0,0,0,0,0,0,5.0536,5.0496,5.0618,5.0584,5.0582,5.0646,5.0647,5.0647,5.0572,5.0569,5.0565,5.0562,5.0588,5.0592,5.0596,5.0693,0,0,5.0609,5.0611,0,0,0,0,0,0,0,0,5.0534,5.0541,5.0589,5.0587,5.0584,5.0602,5.0612,5.0663,5.0573,5.0576,5.0564,5.056,5.0596,5.06,5.0613,5.0694,5.0695,5.061,5.0612,5.0614,5.0615,0,0,0,0,0,0,0,5.0531,5.0539,5.0629,5.059,5.0587,5.0566,5.0568,5.0621,5.0605,5.0575,5.057,5.0575,5.0594,5.0609,5.0613,5.0696,5.061,5.0613,5.0616,5.0618,5.0856,5.0859,0,0,0,0,0,0,5.0533,5.0537,5.0628,5.063,5.055,5.0571,5.0574,5.06,5.0605,5.0602,5.0578,5.0571,5.0603,5.0608,5.0613,5.0725,5.0614,5.0618,5.0621,5.0852,5.0856,5.086,0,0,0,0,0,0,5.053,5.0542,5.0627,5.0582,5.0591,5.0577,5.0607,5.0602,5.0616,5.0606,5.0603,5.0596,5.0601,5.0607,5.0674,5.0725,5.062,5.0624,5.0847,5.0853,5.0858,5.0951,0,0,0,0,0,0,5.0527,5.0541,5.0579,5.0584,5.0594,5.0688,5.061,5.0605,5.0624,5.0616,5.0622,5.062,5.0598,5.0668,5.0678,5.0729,5.0627,5.0843,5.085,5.0857,5.0943,5.0959,5.0973,0,0,0,0,0,5.0523,5.0604,5.0582,5.0593,5.0642,5.0692,5.0697,5.0672,5.0629,5.0666,5.0659,5.062,5.0718,5.0675,5.0686,5.0739,5.0839,5.0848,5.0856,5.0937,5.0956,5.0972,0,0,0,0,0,0,5.0605,5.0604,5.0579,5.0664,5.0679,5.0679,5.0725,5.0694,5.072,5.071,5.0677,5.0679,5.0751,5.0752,5.0704,5.0832,5.0771,5.0782,5.0828,5.0847,5.0861,5.0858,5.0631,0,0,0,0,0,5.0633,5.0676,5.0672,5.0747,5.0756,5.0739,5.076,5.0739,5.0752,5.0758,5.0756,5.0769,5.0802,5.0825,5.0855,5.0944,5.0942,5.0985,5.1,5.1012,5.1021,5.1066,5.1084,5.0888,5.0888,5.0888,0,0,5.0691,5.0696,5.0725,5.0764,5.0772,5.0815,5.0745,5.0793,5.0823,5.0764,5.0826,5.0826,5.0838,5.0915,5.0949,5.0918,5.1075,5.1023,5.1033,5.1035,5.1076,5.1095,5.1111,5.0894,5.0893,5.0892,0,0,5.0819,5.0828,5.0891,5.0901,5.0915,5.0903,5.0919,5.0923,5.0921,5.0983,5.0939,5.0974,5.1033,5.1042,5.1055,5.1185,5.1149,5.1196,5.1272,5.1316,5.1331,5.1344,5.1388,5.1405,5.1206,5.1206,5.1206,0,5.0889,5.0953,5.0926,5.0977,5.0994,5.0944,5.1006,5.1017,5.104,5.1052,5.1018,5.109,5.1094,5.1172,5.1203,5.1216,5.123,5.1194,5.1331,5.1344,5.1357,5.1398,5.1415,5.1211,5.1211,5.121,5.121,0,5.1037,5.1082,5.113,5.1154,5.1177,5.1234,5.1214,5.124,5.1217,5.1208,5.1271,5.1275,5.1304,5.1322,5.13,5.1396,5.1376,5.1337,5.1275,5.1381,5.1419,5.1435,5.1219,5.1217,5.1216,5.1214,0,0,5.1216,5.1225,5.1243,5.1252,5.1264,5.1297,5.135,5.138,5.1401,5.1419,5.1461,5.1512,5.1476,5.149,5.1469,5.1508,5.1607,5.1464,5.1463,5.1488,5.171,5.1738,5.1757,5.1584,5.1587,5.159,5.1708,0,5.134,5.1432,5.1409,5.1499,5.1538,5.1491,5.1537,5.1548,5.1541,5.1572,5.1564,5.16,5.1551,5.1559,5.1595,5.1588,5.1651,5.1579,5.162,5.1622,5.1617,5.1777,5.1806,5.1918,5.1724,5.1726,5.1728,0,5.1496,5.152,5.1615,5.1618,5.1634,5.1676,5.17,5.1731,5.1742,5.1734,5.175,5.1721,5.1771,5.171,5.1777,5.1729,5.1745,5.1743,5.1747,5.1748,5.168,5.178,5.1954,5.197,5.1752,5.175,5.1748,0,5.1614,5.167,5.1733,5.1743,5.175,5.178,5.1784,5.1791,5.181,5.1831,5.1842,5.1869,5.1883,5.1903,5.1881,5.1839,5.1951,5.1889,5.1944,5.1944,5.1968,5.1966,5.2144,5.1982,5.1982,5.1981,5.1981,0,5.1753,5.1812,5.1786,5.1825,5.1889,5.1861,5.1925,5.1923,5.193,5.1966,5.1927,5.1961,5.1931,5.1962,5.1945,5.2002,5.2009,5.2003,5.1997,5.2005,5.2006,5.2013,5.2004,5.1986,5.1985,5.1984,5.1983,0,5.1895,5.188,5.1946,5.1946,5.1948,5.1995,5.1994,5.2029,5.202,5.2066,5.2075,5.206,5.2094,5.2075,5.211,5.2099,5.2172,5.2157,5.2168,5.2163,5.2219,5.2213,5.2406,5.2429,5.2254,5.2256,5.2258,0,5.1984,5.2028,5.2033,5.2055,5.2062,5.2098,5.2116,5.2091,5.2112,5.2127,5.2159,5.2191,5.2214,5.2271,5.2262,5.2289,5.2272,5.2338,5.2276,5.2282,5.227,5.2267,5.227,5.235,5.2352,5.2354,5.2355,0,5.2141,5.2132,5.2161,5.2188,5.2212,5.2231,5.2247,5.2267,5.2242,5.2267,5.2302,5.2321,5.2357,5.2387,5.241,5.2412,5.2379,5.2375,5.2389,5.2396,5.24,5.2396,5.22,5.237,5.2369,5.2368,5.2367,5.2366,5.2257,5.2294,5.2303,5.2336,5.2346,5.2362,5.2394,5.2389,5.2418,5.2445,5.2429,5.2469,5.2477,5.2504,5.2511,5.2541,5.2514,5.2535,5.2539,5.2544,5.2551,5.2398,5.2545,5.2545,5.2544,5.2544,5.2544,0,5.2411,5.2414,5.2446,5.2469,5.2495,5.2464,5.248,5.2503,5.254,5.2551,5.2574,5.2614,5.2644,5.2637,5.2664,5.2689,5.2674,5.2697,5.2693,5.2694,5.2574,5.2559,5.2708,5.2708,5.2708,5.2708,5.2708,5.2708,5.2494,5.2552,5.2544,5.2606,5.2609,5.2649,5.2661,5.2674,5.2682,5.2729,5.2753,5.2749,5.2753,5.2779,5.2804,5.2801,5.2812,5.2839,5.2831,5.2719,5.2702,5.2687,5.2672,5.2842,5.2842,5.2947,5.2948,5.2949]}]]